Monterrey Airport, Mexico

3:48 AM CST on March 30, 2017 (GMT -0600)
Del Norte International

Weather History for MMAN - November, 2012

Change the Weather History Date:

Thursday, November 15, 2012

  Actual Average Record
Temperature  
Mean Temperature 56 °F -  
Max Temperature 59 °F 72 °F 96 °F (2005)
Min Temperature 53 °F 52 °F 35 °F (2014)
Degree Days  
Heating Degree Days 9    
Growing Degree Days 6 (Base 50)    
Moisture  
Dew Point 55 °F    
Average Humidity 93    
Maximum Humidity 100    
Minimum Humidity 82    
Precipitation  
Precipitation 0.00 in - - ()
Sea Level Pressure  
Sea Level Pressure 30.25 in    
Wind  
Wind Speed 0 mph ()    
Max Wind Speed 5 mph    
Max Gust Speed -    
Visibility 1.2 miles    
Events Fog    
Averages and records for this station are not official NWS values.
T = Trace of Precipitation, MM = Missing Value Source: Averaged Metar Reports

Daily Weather History Graph

Daily Weather History Graph

Search for Another Location

Airport or City:

Trip Planner

Search our weather history database for the weather conditions in past years. The results will help you decide how hot, cold, wet, or windy it might be!

Date:

Astronomy

Nov. 15, 2012 Rise Set
Actual Time 6:59 AM CST 5:51 PM CST
Civil Twilight 6:35 AM CST 6:15 PM CST
Nautical Twilight 6:07 AM CST 6:43 PM CST
Astronomical Twilight 5:39 AM CST 7:11 PM CST
Moon 8:50 AM CST (11/15) 7:51 PM CST (11/15)
Length of Visible Light 11h 40m
Length of Day
10h 52m
Waxing Crescent, 5% of the Moon is Illuminated
Nov 15
Waxing Crescent
Nov 20
First Quarter
Nov 28
Full
Dec 6
Last Quarter
Dec 13
New

Hourly Weather History & Observations

Time (CST) Temp. Dew Point Humidity Pressure Visibility Wind Dir Wind Speed Gust Speed Precip Events Conditions
6:52 AM 53.6 °F 50.0 °F 88% 30.26 in 1.0 mi Calm Calm - N/A   Light Drizzle
7:51 AM 53.6 °F 53.6 °F 100% 30.27 in 1.0 mi Calm Calm - N/A   Light Drizzle
8:44 AM 53.6 °F 53.6 °F 100% 30.25 in 1.0 mi Calm Calm - N/A   Overcast
9:43 AM 55.4 °F 51.8 °F 88% 30.29 in 1.0 mi Calm Calm - N/A   Overcast
10:41 AM 57.2 °F 53.6 °F 88% 30.29 in 2.0 mi Calm Calm - N/A   Overcast
11:40 AM 57.2 °F 53.6 °F 88% 30.24 in 2.0 mi Calm Calm - N/A   Overcast
12:41 PM 59.0 °F 53.6 °F 82% 30.25 in 2.0 mi Calm Calm - N/A   Overcast
1:42 PM 59.0 °F 53.6 °F 82% 30.22 in 2.0 mi Calm Calm - N/A   Overcast
2:40 PM 59.0 °F 55.4 °F 88% 30.32 in 2.0 mi SSE 4.6 mph - N/A   Overcast
3:40 PM 59.0 °F 59.0 °F 100% 30.19 in 1.0 mi Calm Calm - N/A   Drizzle
4:42 PM 59.0 °F 59.0 °F 100% 30.20 in 1.0 mi Calm Calm - N/A   Light Drizzle
5:40 PM 57.2 °F 55.4 °F 94% 30.16 in 1.0 mi Calm Calm - N/A   Light Drizzle
6:40 PM 57.2 °F 55.4 °F 94% 30.24 in 1.0 mi Calm Calm - N/A   Overcast
7:40 PM 57.2 °F 55.4 °F 94% 30.26 in 2.0 mi Calm Calm - N/A   Overcast
8:21 PM 57.2 °F 55.4 °F 94% 30.26 in 0.5 mi East 4.6 mph - N/A Fog Fog
8:40 PM 57.2 °F 55.4 °F 94% 30.21 in 0.2 mi Calm Calm - N/A Fog Fog
9:40 PM 55.4 °F 55.4 °F 100% 30.28 in 0.1 mi Calm Calm - N/A Fog Fog
10:02 PM 57.2 °F 55.4 °F 94% 30.28 in 1.0 mi Calm Calm - N/A   Mist
10:40 PM 55.4 °F 55.4 °F 100% 30.27 in 1.5 mi Calm Calm - N/A   Light Drizzle
11:40 PM 55.4 °F 55.4 °F 100% 30.20 in 1.5 mi Calm Calm - N/A   Light Drizzle